COSMOS 2251 DEB, 33760

Orbit data source: Space-Track

COSMOS 2251 DEB, 33760 is space debris in LEO originally from a launch on Wed, 16 Jun 1993 UTC launched from the Plesetsk Missile And Space Complex (PKMTR). The debris from Iridium 33, an American commercial communications satellite, has been tracked extensively since its accidental collision with the defunct Russian satellite Cosmos 2251 in 2009. This event, occurring at high speed in low Earth orbit (LEO), generated thousands of pieces of space debris, significantly increasing the risk of further collisions. The Iridium 33 debris cloud has impacted space traffic management and orbital debris mitigation strategies, making it a subject of ongoing study in space situational awareness.

Loading next visibility...
Identifier
33760, 1993-036H
Orbit
LEO
Country
Flag of CISCIS
Related business
Manufacturer
Unknown
Mission
Spacecraft
Bus & Motor
Unknown
Mass
Unknown
Launch date (UTC)
1993-06-16 (33 years ago)
Launch vehicle
Unknown
Launch site
Plesetsk Missile And Space Complex (PKMTR)
Object type
Payload
Rocket body
Debris
Shape & HBR
Unknown shape, 0.2 m
Radar Cross Section
Medium (>0.1 m² and <1 m²)

Expand to show TLE details & history
Last TLE update: 6 hours ago

TLE from 6 hours ago
0 COSMOS 2251 DEB
1 33760U 93036H   25354.17653559  .00000192  00000-0  75618-4 0  9993
2 33760  74.0322 267.8082 0020233   4.4816 155.7374 14.35677132882318
Epoch: 2025-12-20T04:14Z
TLE epoch observation values (Epoch: 2025-12-20T04:14:12.674Z)
Latitude
18.90037°
Longitude
-70.34393°
Altitude
788.124 km
Speed
7.455 km/s
True Right ascension
05h 28m 51s
True Declination
18° 47' 44"
Sunlit
Object was in full shadow at epoch
Visualization orbit readout
Latitude
Unknown
Longitude
Unknown
Altitude
Unknown
Speed
Unknown
Apparent Right ascension
Unknown
Apparent Declination
Unknown
Sunlit
N/A
Visualization observer readout
Local Sidereal Time
09:32:07
Azimuth
Unknown
Elevation
Unknown
Doppler factor
Unknown
Orbital elements
Apogee altitude
784.905 km
Perigee altitude
755.978 km
Semi-major axis
7,148.579 km
Eccentricity
0.00202
Inclination
74.0322°
RAAN
267.8082°
Arg. of periapsis
4.4816°
True anomaly
155.83245°
Mean anomaly
155.7374°
Eccentric anomaly
155.78495°
Mean motion
3.59099 °/min
Orbital period
100.25 mins
BSTAR
0.000075618

Documentation

Showing up to 5 results
|